Regional Weather Roundup
Issued by NWS Upton, NY

Current Version | Previous Version | Text Only | Print | Product List | Glossary Off
Versions: 1 2 3 4 5 6 7 8 9 10 11 12 13 14 15 16 17 18 19 20 21 22 23 24 25 26 27 28 29 30 31 32 33 34 35 36 37 38 39 40 41 42 43 44 45 46 47 48 49 50
000 ASUS41 KOKX 292108 RWROKX REGIONAL WEATHER ROUNDUP NATIONAL WEATHER SERVICE NEW YORK NY 500 PM EDT MON JUN 29 2015 NOTE: "FAIR" INDICATES FEW OR NO CLOUDS BELOW 12,000 FEET WITH NO SIGNIFICANT WEATHER AND/OR OBSTRUCTIONS TO VISIBILITY. NYZ071-072-176-178-NJZ106-104-292200- NEW YORK CITY METRO AREA CITY SKY/WX TMP DP RH WIND PRES REMARKS CENTRAL PARK MOSUNNY 76 55 48 VRB3 29.93S LAGUARDIA APRT MOSUNNY 77 53 43 W10 29.90S KENNEDY INTL PTSUNNY 77 55 46 W17 29.91S NEWARK/LIBERTY MOSUNNY 78 56 46 W12G20 29.90F BRNX BOT. GARD N/A 75 54 46 W6 29.90F TETERBORO SUNNY 76 55 48 W8 29.89F $$ NYZ177-179-078>081-292200- LONG ISLAND NEW YORK CITY SKY/WX TMP DP RH WIND PRES REMARKS FARMINGDALE CLOUDY 74 59 59 SW9 29.90S ISLIP PTSUNNY 72 59 63 SW12 29.89S SHIRLEY PTSUNNY 73 58 59 SW13G22 29.91R WESTHAMPTON PTSUNNY 71 58 63 SW12 29.91F MONTAUK POINT N/A 73 59 61 SW9G20 29.90S $$ NYZ052-065-067-292200- HUDSON VALLEY CITY SKY/WX TMP DP RH WIND PRES REMARKS WHITE PLAINS PTSUNNY 74 56 53 W8 29.90S NEWBURGH PTSUNNY 72 61 68 W14 29.90F MONTGOMERY CLOUDY 73 58 59 W5 29.89S POUGHKEEPSIE CLOUDY 74 58 57 SW10 29.88S ALBANY PTSUNNY 72 58 61 SW10 29.87F $$ NJZ001-105-106-008-010-013-015-019>022-104-292200- NEW JERSEY CITY SKY/WX TMP DP RH WIND PRES REMARKS NEWARK/LIBERTY MOSUNNY 78 56 46 W12G20 29.90F TETERBORO SUNNY 76 55 48 W8 29.89F CALDWELL SUNNY 76 55 48 NW8 29.90F MORRISTOWN MOSUNNY 77 59 53 W8 29.91F SOMERVILLE SUNNY 77 56 48 W8 29.89F SUSSEX MOSUNNY 74 58 57 VRB5 29.90F ANDOVER N/A 73 58 59 VRB3 29.91F TRENTON MOSUNNY 78 57 48 NW6 29.92S MILLVILLE MOSUNNY 80 57 45 W10G17 29.93F ATLANTIC CITY MOSUNNY 80 58 46 W10 29.93S WRIGHTSTOWN PTSUNNY 77 58 51 NW9 29.90S TOMS RIVER PTSUNNY 79 55 44 NW12 29.93S BELMAR PTSUNNY 75 55 50 W9 29.92S $$ PAZ047>061-062-071-292200- EASTERN PENNSYLVANIA CITY SKY/WX TMP DP RH WIND PRES REMARKS PHILADELPHIA MOSUNNY 80 54 40 W14G20 29.93S ALLENTOWN MOSUNNY 78 58 49 W12G18 29.91F SCRANTON CLOUDY 76 56 49 W7 29.90F $$ CTZ002-004>006-009-010-012-RIZ004-006-007-MAZ004-011-015-292200- SOUTHERN NEW ENGLAND IN CT CITY SKY/WX TMP DP RH WIND PRES REMARKS BRADLEY INTL PTSUNNY 75 57 53 W8 29.85S HARTFORD CLOUDY 76 59 55 SW9G16 29.86S DANBURY PTSUNNY 73 55 53 W12 29.91R WTRBRY/OXFORD PTSUNNY 73 55 53 W6 29.91S BRIDGEPORT CLOUDY 76 61 59 SW13 29.88S MERIDEN PTSUNNY 75 56 51 VRB5 29.87S NEW HAVEN PTSUNNY 72 59 63 SW10 29.88S CHESTER MOCLDY 72 59 64 SW8 29.90S GROTON CLOUDY 73 57 57 W13 29.88R WILLIMANTIC CLOUDY 73 58 59 SW9 29.87S IN RI CITY SKY/WX TMP DP RH WIND PRES REMARKS PROVIDENCE PTSUNNY 73 60 63 SW10 29.87R BLOCK ISLAND SUNNY 72 59 64 SW15G25 29.90S WESTERLY PTSUNNY 73 57 57 W10 29.89S IN MA CITY SKY/WX TMP DP RH WIND PRES REMARKS BOSTON PTSUNNY 72 59 63 SW10 29.85S WORCESTER CLOUDY 69 57 65 W7 29.89R WESTFIELD CLOUDY 73 57 57 W8 29.86R PROVINCETOWN MOSUNNY 73 16 11 SW14 29.86S NANTUCKET SUNNY 69 60 73 SW15 29.90S $$ ANZ330-335-338-340-345-350-353-355-292200- COASTAL MARINE OBSERVATIONS STATION/POSITION TIME SKY/WX TEMP WIND PRES VSBY WAVE AIR SEA DIR/SP/G HT/PER (UTC) (F) (DEG/KT/KT) (MB) (MI) (FT/S) NY HARB ENTRANCE 2050 70 69 150/ 6/ 6 1012.5 3/ 9 4S FIRE IS 2003 66 N/A 5/ 8 20S FIRE ISLAND 2050 68 66 210/ 12/ 14 1012.7 4/ 8 GREAT SOUTH BAY 2015 70 72 260/ 10/ 16 N/A 23SW MTP 2050 67 66 230/ 14/ 17 1012.4 6/ 9 HUDSON CANYON NOT AVBL KINGS POINT 2000 73 69 300/ 11/ 12 1011.8 CENTRAL LI SOUND NOT AVBL EASTERN LI SOUND NOT AVBL ROBBINS REEF 2000 73 300/ 15/ 18 1011.5 $$ >>>>>>>>>>>>>>>>>>>>>>>>>>>> KEY <<<<<<<<<<<<<<<<<<<<<<<<<<< > < > SKY/WX - SKY CONDITION/PRESENT WEATHER < > TMP - TEMPERATURE IN FAHRENHEIT < > DP - DEWPOINT IN FAHRENHEIT < > RH - RELATIVE HUMIDITY IN PERCENT < > WIND - DIRECTION AND SPEED IN MPH < > PRES - MEAN SEA LEVEL PRESSURE IN INCHES OF HG < > WCI - WIND CHILL INDEX < > VSB - VISIBILITY IN MILES < > HX - HEAT INDEX < > TC - TEMPERATURE IN CELSIUS < > VRB - VARIABLE WIND DIRECTION < > < >>>>>>>>>>>>>>>>>>>>>>>>>>>> KEY <<<<<<<<<<<<<<<<<<<<<<<<<<<

USA.gov is the U.S. government's official web portal to all federal, state and local government web resources and services.